カタログに戻る

SL-14 DEB

運用中PO
NORAD 19136·DEBRIS·🇷🇺 Russia

打ち上げ Oct 26, 1978 から Plesetsk Cosmodrome

Loading…

次のパス (今後24時間)

TLE

最新Source: Space-Track

元期: Sep 13, 2026, 13:30 UTC

1 19136U 78100J   26256.56264168  .00000625  00000-0  15542-2 0  9997
2 19136  82.4085 108.2588 0392609 252.6100 131.0218 12.94860981219912

AllMySatでSL-14 DEBをリアルタイム追跡

Download on the App Store